Location: Wanzleben
(52.0609°N, 11.4408°E)
Time: 17:35:39
(UTC+00:00)

Envisat - Pass Details

Date: 27 November 2020
Orbit: 764 x 766 km, 98.1° (Epoch: 20 January)

Event Time Altitude Azimuth Distance (km) Brightness Sun altitude
Rises 15:45:18 0° 155° (SSE) 3,223 6.3 -5.6°
Reaches altitude 10° 15:47:37 10° 153° (SSE) 2,301 5.5 -5.9°
Maximum altitude 15:52:39 69° 71° (ENE) 824 3.0 -6.6°
Drops below altitude 10° 15:57:43 10° 349° (N) 2,318 5.3 -7.3°
Sets 16:00:03 0° 348° (NNW) 3,249 6.1 -7.7°
